A/2017 U7

Japanese version
Home page
Updated on August 28, 2018

---------------------------------------------------------------------

* Profile

Discovery Date October 29, 2017
Magnitude 20.1 mag
Discoverer Pan-STARRS 1 telescope (Haleakala)

* Orbital Elements

Epoch 2019 Aug. 25.0 TT = JDT 2458720.5
T 2019 Sept. 11.25566 TT                                MPCW
q   6.4175594            (2000.0)            P               Q
z  -0.0001078      Peri.  326.02806     +0.53152958     -0.59456391
 +/-0.0000023      Node   276.23283     -0.57724774     -0.77550260
e   1.0006917      Incl.  142.63527     -0.61988817     +0.21234285
From 89 observations 2017 Aug. 18-2018 Apr. 27, mean residual 0".2.

* Magnitudes Graph

        H = 10.0  G = 0.15

---------------------------------------------------------------------

The orbital elements are published on M.P.E.C. 2018-K95.
The magnitudes graphs are made with Comet for Windows.

---------------------------------------------------------------------

Copyright(C) Seiichi Yoshida (comet@aerith.net). All rights reserved.